Simultaneous Nadir Overpasses (SNOs) Predictions

Prediction of SNOs between GOES-16 and TERRA Satellite Orbit:

Table of predicted SNOs for the next 14.0 days since TLE Epoch: 5/19/2017
Index Date Time (GOES-16) GOES-16 Lat,Lon TERRA Lat,Lon Distance(km) Time Diff (sec)
1 05/20/2017 04:31:36 -0.01, -89.49 -0.09, -89.95 52.15 80
2 05/22/2017 04:16:44 -0.01, -89.49 0.50, -86.99 284.19 80
3 05/22/2017 16:38:00 0.01, -89.50 0.56, -92.15 300.70 80
4 05/24/2017 16:28:29 0.01, -89.50 -0.08, -89.20 35.91 80
5 05/26/2017 16:16:17 0.01, -89.51 -0.67, -86.23 372.14 80
6 05/27/2017 04:37:41 -0.01, -89.50 -0.45, -91.42 219.30 80
7 05/29/2017 04:22:50 -0.01, -89.50 0.19, -88.46 117.16 80
8 05/29/2017 16:44:05 0.01, -89.51 0.87, -93.63 468.06 80
9 05/31/2017 04:10:39 -0.00, -89.51 0.84, -85.51 454.10 80
10 05/31/2017 16:31:54 0.01, -89.52 0.23, -90.67 130.88 80
11 06/02/2017 16:22:24 0.00, -89.54 -0.41, -87.72 207.08 80




NCC Satellite Simultaneous Nadir Overpasses (SNOs) Prediction Service
